Find Starlink 34309

NORAD ID: 64167 Int'l Des: 2025-112 Owner: SPXS Country: US Constellation: starlink operational
LEOCIRCULARRETROGRADESSO

当前视图

正在加载3D地球...

About Starlink 34309

Starlink 34309 (NORAD 64167) is a starlink constellation satellite (v2 mini) launched May 27, 2025 by SPXS of US. It operates in LEO, CIRCULAR, RETROGRADE, SSO orbit with a mass of 575.00 kg.

关于 Starlink 34309

正在加载描述...

即将过境

Passes for default location (London). Set your location on the main map for personalized predictions.

高度历史

Loading altitude history...

两行轨道根数

1 64167U 25112X 26176.10435265 .00006863 00000-0 47889-3 0 9995
2 64167 97.3136 226.1822 0001367 103.8230 256.3150 15.05670603 59472
Epoch: Jun 25, 2026 • Age: 9 hours

当前状态

高度 571.1 km
速度 7.57 km/s
星下点 -53.96°S, 49.94°W
发射日期 May 27, 2025
运行时间 1 year
类型 internet

技术详情

分类 Payload
质量 575.00 kg
干质量 530.00 kg
总质量 575.00 kg
长度 0.30 m
直径 4.10 m
跨度 29.00 m
形状 Box + pan
制造商 SPXS
平台类型 Starlink V2MO
阶段状态 In Orbit
所有者/国家 SPXS/US

Most Searched